Showing default

EKRAN 2, 10365

Orbit data source: Space-Track

EKRAN 2, 10365 is a payload satellite owned by MSvyaz (CIS) in GEO that was launched on Tue, 20 Sep 1977 UTC via a PROTON-K/DM launch vehicle from the Tyuratam Missile And Space Complex (TTMTR). Payload-class satellites include a variety of spacecraft equipped with specific instruments for various scientific and technological missions. These include communications satellites like Starlink; space stations such as the ISS; scientific satellites like the Hubble; Earth observation satellites from companies like Planet Labs, Umbra, and HawkEye 360; GPS; miniature CubeSats for education and research; and military/defense satellites.

Not visible in the next 10 days
Identifier
10365, 1977-092A
Orbit
GEO
Country
Flag of CISCIS
Related business
Manufacturer
NPO PM
Mission
Non-operational spacecraft
Bus & Motor
EKRAN, Unknown motor
Mass
2,000 kg wet, ~1,850 kg dry
Launch date (UTC)
1977-09-20 (48 years ago)
Launch vehicle
PROTON-K/DM
Launch site
Tyuratam Missile And Space Complex (TTMTR)
Object type
Payload
Rocket body
Debris
Shape & HBR
Unknown
Radar Cross Section
Large (>1 m²)

Expand to show TLE details & history
Last TLE update: 13 hours ago

TLE from 13 hours ago
0 EKRAN 2
1 10365U 77092A   26061.67877310 -.00000320  00000-0  00000+0 0  9999
2 10365   4.5102 276.0895 0042846  16.3352 211.4220  1.00279915133788
Epoch: 2026-03-02T16:17Z
TLE epoch observation values (Epoch: 2026-03-02T16:17:25.995Z)
Latitude
-3.32325°
Longitude
98.72956°
Altitude
35,939.048 km
Speed
3.064 km/s
True Right ascension
09h 34m 13s
True Declination
-3° 19' 12"
Sunlit
Object was in daylight at epoch
Visualization orbit readout
Latitude
Unknown
Longitude
Unknown
Altitude
Unknown
Speed
Unknown
Apparent Right ascension
Unknown
Apparent Declination
Unknown
Sunlit
N/A
Visualization observer readout
Local Sidereal Time
08:42:31
Azimuth
Unknown
Elevation
Unknown
Doppler factor
Unknown
Orbital elements
Apogee altitude
35,966.031 km
Perigee altitude
35,604.723 km
Semi-major axis
42,163.514 km
Eccentricity
0.00428
Inclination
4.5102°
RAAN
276.0895°
Arg. of periapsis
16.3352°
True anomaly
211.1672°
Mean anomaly
211.422°
Eccentric anomaly
211.29448°
Mean motion
0.25069 °/min
Orbital period
1,436.03 mins
BSTAR
0
Loading maneuver chart data...
Computing Atmospheric mass density...
Loading historical data...
Loading historical data...
Loading historical data...
Loading historical data...
Loading historical data...
Loading historical data...
Loading historical data...

Documentation

Showing up to 5 results
|